Location: Archemont
(49.1579°N, 1.7598°E)
Time: 14:45:27
(UTC+00:00)

Transit 2A - Pass Details

Date: 14 April 2024
Orbit: 594 x 958 km, 66.7° (Epoch: 28 May)

Event Time Altitude Azimuth Distance (km) Brightness Sun altitude
Rises 13:33:11 0° 324° (NW) 3,092 9.0 45.4°
Reaches altitude 10° 13:36:22 10° 346° (NNW) 2,246 8.3 45.1°
Maximum altitude 13:39:33 16° 25° (NNE) 1,926 7.8 44.8°
Drops below altitude 10° 13:42:53 10° 63° (ENE) 2,396 8.3 44.4°
Sets 13:46:26 0° 84° (E) 3,407 9.0 44.0°
